Time,TemperatureF,DewpointF,PressureIn,WindDirection,WindDirectionDegrees,WindSpeedMPH,WindSpeedGustMPH,Humidity,HourlyPrecipIn,Conditions,Clouds,dailyrainin,SoftwareType,DateUTC
2013-01-09 00:03:00,44.4,40.8,28.66,NE,45,0.0,4.0,87,0.00,,,0.00,meteohub,2013-01-09 06:03:00,
2013-01-09 00:08:00,44.6,40.6,28.66,NW,315,2.0,4.0,86,0.00,,,0.00,meteohub,2013-01-09 06:08:00,
2013-01-09 00:13:00,44.8,40.8,28.67,North,0,2.0,6.0,86,0.00,,,0.00,meteohub,2013-01-09 06:13:00,
2013-01-09 00:18:00,44.8,40.8,28.67,NW,315,2.0,6.0,86,0.00,,,0.00,meteohub,2013-01-09 06:18:00,
2013-01-09 00:23:00,44.6,40.6,28.67,North,0,2.0,6.0,86,0.00,,,0.00,meteohub,2013-01-09 06:23:00,
2013-01-09 00:28:00,44.8,40.8,28.67,NE,45,2.0,3.0,86,0.00,,,0.00,meteohub,2013-01-09 06:28:00,
2013-01-09 00:33:00,44.8,40.8,28.67,NE,45,2.0,3.0,86,0.00,,,0.00,meteohub,2013-01-09 06:33:00,
2013-01-09 00:38:00,45.1,41.2,28.66,North,0,4.0,4.0,86,0.00,,,0.00,meteohub,2013-01-09 06:38:00,
2013-01-09 00:43:00,45.5,41.5,28.66,North,0,4.0,4.0,86,0.00,,,0.00,meteohub,2013-01-09 06:43:00,
2013-01-09 00:48:00,45.3,41.4,28.65,NW,315,4.0,4.0,86,0.00,,,0.00,meteohub,2013-01-09 06:48:00,
2013-01-09 00:53:00,45.0,41.0,28.66,North,0,3.0,4.0,86,0.00,,,0.00,meteohub,2013-01-09 06:53:00,
2013-01-09 00:58:00,45.0,41.4,28.66,North,0,5.0,5.0,87,0.00,,,0.00,meteohub,2013-01-09 06:58:00,
2013-01-09 01:03:00,45.1,41.5,28.66,North,0,4.0,7.0,87,0.00,,,0.00,meteohub,2013-01-09 07:03:00,
2013-01-09 01:08:00,45.9,42.3,28.66,North,0,3.0,7.0,87,0.00,,,0.00,meteohub,2013-01-09 07:08:00,
2013-01-09 01:13:00,45.9,41.9,28.66,North,0,3.0,7.0,86,0.00,,,0.00,meteohub,2013-01-09 07:13:00,
2013-01-09 01:19:00,45.9,41.5,28.66,NW,315,4.0,5.0,85,0.00,,,0.00,meteohub,2013-01-09 07:19:00,
2013-01-09 01:23:00,45.9,41.5,28.66,West,270,3.0,5.0,85,0.00,,,0.00,meteohub,2013-01-09 07:23:00,
2013-01-09 01:29:00,45.7,41.4,28.67,NW,315,4.0,5.0,85,0.00,,,0.00,meteohub,2013-01-09 07:29:00,
2013-01-09 01:34:00,45.1,40.8,28.66,WNW,293,5.0,5.0,85,0.00,,,0.00,meteohub,2013-01-09 07:34:00,
2013-01-09 01:39:00,45.0,41.0,28.65,NW,315,4.0,5.0,86,0.00,,,0.00,meteohub,2013-01-09 07:39:00,
2013-01-09 01:44:00,44.4,40.8,28.65,NW,315,5.0,5.0,87,0.00,,,0.00,meteohub,2013-01-09 07:44:00,
2013-01-09 01:49:00,43.9,40.6,28.65,North,0,5.0,5.0,88,0.00,,,0.00,meteohub,2013-01-09 07:49:00,
2013-01-09 01:54:00,43.7,40.5,28.65,NW,315,6.0,6.0,88,0.00,,,0.00,meteohub,2013-01-09 07:54:00,
2013-01-09 01:59:00,43.7,40.5,28.65,NW,315,4.0,6.0,88,0.00,,,0.00,meteohub,2013-01-09 07:59:00,
2013-01-09 02:04:00,43.3,40.3,28.64,NW,315,6.0,7.0,89,0.00,,,0.00,meteohub,2013-01-09 08:04:00,
2013-01-09 02:09:00,43.0,39.9,28.64,WNW,293,6.0,7.0,89,0.00,,,0.00,meteohub,2013-01-09 08:09:00,
2013-01-09 02:14:00,42.6,39.6,28.65,North,0,4.0,7.0,89,0.00,,,0.00,meteohub,2013-01-09 08:14:00,
2013-01-09 02:19:00,42.8,40.1,28.64,North,0,6.0,7.0,90,0.00,,,0.00,meteohub,2013-01-09 08:19:00,
2013-01-09 02:24:00,43.2,40.1,28.64,North,0,4.0,7.0,89,0.00,,,0.00,meteohub,2013-01-09 08:24:00,
2013-01-09 02:29:00,43.2,40.1,28.64,NW,315,8.0,8.0,89,0.00,,,0.00,meteohub,2013-01-09 08:29:00,
2013-01-09 02:34:00,43.2,40.1,28.64,NW,315,4.0,8.0,89,0.00,,,0.00,meteohub,2013-01-09 08:34:00,
2013-01-09 02:39:00,43.3,40.3,28.64,NW,315,5.0,8.0,89,0.00,,,0.00,meteohub,2013-01-09 08:39:00,
2013-01-09 02:44:00,43.2,39.9,28.64,NW,315,4.0,8.0,88,0.00,,,0.00,meteohub,2013-01-09 08:44:00,
2013-01-09 02:49:00,42.3,39.0,28.64,NW,315,3.0,8.0,88,0.00,,,0.00,meteohub,2013-01-09 08:49:00,
2013-01-09 02:54:00,41.9,38.8,28.65,NW,315,2.0,5.0,89,0.00,,,0.00,meteohub,2013-01-09 08:54:00,
2013-01-09 02:59:00,41.9,39.4,28.65,North,0,3.0,5.0,91,0.00,,,0.00,meteohub,2013-01-09 08:59:00,
2013-01-09 03:04:00,41.5,39.2,28.65,NW,315,4.0,4.0,91,0.00,,,0.00,meteohub,2013-01-09 09:04:00,
2013-01-09 03:09:00,41.5,39.2,28.65,NW,315,4.0,4.0,91,0.00,,,0.00,meteohub,2013-01-09 09:09:00,
2013-01-09 03:14:00,41.2,39.0,28.65,NNW,338,4.0,4.0,92,0.00,,,0.00,meteohub,2013-01-09 09:14:00,
2013-01-09 03:19:00,41.0,39.2,28.65,NW,315,7.0,7.0,93,0.00,,,0.00,meteohub,2013-01-09 09:19:00,
2013-01-09 03:24:00,41.2,39.4,28.65,WNW,293,4.0,5.0,93,0.00,,,0.00,meteohub,2013-01-09 09:24:00,
2013-01-09 03:29:00,41.2,39.4,28.65,WSW,248,4.0,7.0,93,0.00,,,0.00,meteohub,2013-01-09 09:29:00,
2013-01-09 03:34:00,41.2,39.0,28.65,NW,315,4.0,7.0,92,0.00,,,0.00,meteohub,2013-01-09 09:34:00,
2013-01-09 03:39:00,41.2,39.0,28.66,NW,315,4.0,5.0,92,0.00,,,0.00,meteohub,2013-01-09 09:39:00,
2013-01-09 03:44:00,41.2,39.0,28.66,NW,315,4.0,7.0,92,0.00,,,0.00,meteohub,2013-01-09 09:44:00,
2013-01-09 03:49:00,41.2,39.0,28.66,NW,315,4.0,7.0,92,0.00,,,0.00,meteohub,2013-01-09 09:49:00,
2013-01-09 03:54:00,41.2,39.0,28.67,NW,315,4.0,7.0,92,0.00,,,0.00,meteohub,2013-01-09 09:54:00,
2013-01-09 03:59:00,40.6,38.8,28.67,NW,315,4.0,5.0,93,0.00,,,0.00,meteohub,2013-01-09 09:59:00,
2013-01-09 04:04:00,40.8,39.0,28.67,NW,315,4.0,5.0,93,0.00,,,0.00,meteohub,2013-01-09 10:04:00,
2013-01-09 04:09:00,40.5,38.7,28.67,North,0,4.0,5.0,93,0.00,,,0.00,meteohub,2013-01-09 10:09:00,
2013-01-09 04:14:00,40.6,39.0,28.67,West,270,5.0,5.0,94,0.00,,,0.00,meteohub,2013-01-09 10:14:00,
2013-01-09 04:19:00,40.5,38.8,28.68,NW,315,5.0,7.0,94,0.00,,,0.00,meteohub,2013-01-09 10:19:00,
2013-01-09 04:24:00,40.8,39.0,28.67,NW,315,6.0,8.0,93,0.00,,,0.00,meteohub,2013-01-09 10:24:00,
2013-01-09 04:29:00,41.2,39.0,28.69,North,0,6.0,8.0,92,0.00,,,0.00,meteohub,2013-01-09 10:29:00,
2013-01-09 04:34:00,41.2,38.8,28.68,NNW,338,4.0,8.0,91,0.00,,,0.00,meteohub,2013-01-09 10:34:00,
2013-01-09 04:39:00,41.5,38.8,28.69,North,0,6.0,8.0,90,0.00,,,0.00,meteohub,2013-01-09 10:39:00,
2013-01-09 04:44:00,41.2,38.5,28.68,NW,315,4.0,7.0,90,0.00,,,0.00,meteohub,2013-01-09 10:44:00,
2013-01-09 04:49:00,41.0,37.9,28.69,NW,315,5.0,7.0,89,0.00,,,0.00,meteohub,2013-01-09 10:49:00,
2013-01-09 04:54:00,40.8,37.2,28.69,NW,315,5.0,8.0,87,0.00,,,0.00,meteohub,2013-01-09 10:54:00,
2013-01-09 04:59:00,40.8,37.2,28.69,NW,315,7.0,9.0,87,0.00,,,0.00,meteohub,2013-01-09 10:59:00,
2013-01-09 05:04:00,41.0,36.9,28.69,North,0,8.0,11.0,85,0.00,,,0.00,meteohub,2013-01-09 11:04:00,
2013-01-09 05:09:00,41.0,36.3,28.68,North,0,11.0,11.0,83,0.00,,,0.00,meteohub,2013-01-09 11:09:00,
2013-01-09 05:14:00,41.2,36.5,28.69,North,0,6.0,11.0,83,0.00,,,0.00,meteohub,2013-01-09 11:14:00,
2013-01-09 05:19:00,40.6,36.0,28.68,NW,315,8.0,11.0,83,0.00,,,0.00,meteohub,2013-01-09 11:19:00,
2013-01-09 05:24:00,40.6,36.0,28.68,NW,315,7.0,11.0,83,0.00,,,0.00,meteohub,2013-01-09 11:24:00,
2013-01-09 05:29:00,40.6,36.0,28.69,North,0,6.0,11.0,83,0.00,,,0.00,meteohub,2013-01-09 11:29:00,
2013-01-09 05:34:00,40.5,35.8,28.69,WNW,293,6.0,9.0,83,0.00,,,0.00,meteohub,2013-01-09 11:34:00,
2013-01-09 05:39:00,40.1,35.4,28.69,North,0,11.0,11.0,83,0.00,,,0.00,meteohub,2013-01-09 11:39:00,
2013-01-09 05:44:00,40.5,35.4,28.69,North,0,7.0,9.0,82,0.00,,,0.00,meteohub,2013-01-09 11:44:00,
2013-01-09 05:49:00,40.6,35.6,28.70,NW,315,5.0,11.0,82,0.00,,,0.00,meteohub,2013-01-09 11:49:00,
2013-01-09 05:54:00,40.5,35.4,28.70,North,0,4.0,11.0,82,0.00,,,0.00,meteohub,2013-01-09 11:54:00,
2013-01-09 05:59:00,40.5,35.8,28.71,NE,45,4.0,10.0,83,0.00,,,0.00,meteohub,2013-01-09 11:59:00,
2013-01-09 06:04:00,40.5,35.4,28.71,North,0,6.0,9.0,82,0.00,,,0.00,meteohub,2013-01-09 12:04:00,
2013-01-09 06:10:00,41.0,35.2,28.71,NW,315,7.0,7.0,80,0.00,,,0.00,meteohub,2013-01-09 12:10:00,
2013-01-09 06:15:00,41.2,35.4,28.71,NW,315,7.0,8.0,80,0.00,,,0.00,meteohub,2013-01-09 12:15:00,
2013-01-09 06:20:00,41.2,35.2,28.71,North,0,11.0,11.0,79,0.00,,,0.00,meteohub,2013-01-09 12:20:00,
2013-01-09 06:25:00,41.5,35.2,28.71,NW,315,11.0,12.0,78,0.00,,,0.00,meteohub,2013-01-09 12:25:00,
2013-01-09 06:30:00,41.7,35.1,28.71,NW,315,11.0,14.0,77,0.00,,,0.00,meteohub,2013-01-09 12:30:00,
2013-01-09 06:35:00,41.5,34.9,28.71,NW,315,11.0,14.0,77,0.00,,,0.00,meteohub,2013-01-09 12:35:00,
2013-01-09 06:40:00,41.5,34.5,28.71,North,0,14.0,14.0,76,0.00,,,0.00,meteohub,2013-01-09 12:40:00,
2013-01-09 06:45:00,41.5,34.5,28.71,NW,315,11.0,15.0,76,0.00,,,0.00,meteohub,2013-01-09 12:45:00,
2013-01-09 06:50:00,41.7,34.7,28.71,North,0,8.0,15.0,76,0.00,,,0.00,meteohub,2013-01-09 12:50:00,
2013-01-09 06:55:00,41.7,34.7,28.71,North,0,12.0,15.0,76,0.00,,,0.00,meteohub,2013-01-09 12:55:00,
2013-01-09 07:00:00,41.5,34.5,28.71,North,0,9.0,15.0,76,0.00,,,0.00,meteohub,2013-01-09 13:00:00,
2013-01-09 07:05:00,41.7,34.7,28.71,WNW,293,8.0,13.0,76,0.00,,,0.00,meteohub,2013-01-09 13:05:00,
2013-01-09 07:10:00,41.7,34.7,28.71,North,0,7.0,13.0,76,0.00,,,0.00,meteohub,2013-01-09 13:10:00,
2013-01-09 07:15:00,42.1,35.1,28.71,North,0,10.0,12.0,76,0.00,,,0.00,meteohub,2013-01-09 13:15:00,
2013-01-09 07:20:00,42.3,35.2,28.72,NW,315,8.0,11.0,76,0.00,,,0.00,meteohub,2013-01-09 13:20:00,
2013-01-09 07:25:00,42.3,35.2,28.72,NE,45,6.0,11.0,76,0.00,,,0.00,meteohub,2013-01-09 13:25:00,
2013-01-09 07:30:00,42.3,34.9,28.72,North,0,10.0,11.0,75,0.00,,,0.00,meteohub,2013-01-09 13:30:00,
2013-01-09 07:35:00,42.3,34.9,28.73,North,0,9.0,11.0,75,0.00,,,0.00,meteohub,2013-01-09 13:35:00,
2013-01-09 07:40:00,42.4,35.1,28.73,North,0,4.0,12.0,75,0.00,,,0.00,meteohub,2013-01-09 13:40:00,
2013-01-09 07:45:00,42.4,35.1,28.73,NE,45,6.0,12.0,75,0.00,,,0.00,meteohub,2013-01-09 13:45:00,
2013-01-09 07:50:00,42.4,34.7,28.73,North,0,10.0,12.0,74,0.00,,,0.00,meteohub,2013-01-09 13:50:00,
2013-01-09 07:55:00,42.1,34.3,28.73,North,0,10.0,11.0,74,0.00,,,0.00,meteohub,2013-01-09 13:55:00,
2013-01-09 08:00:00,42.1,34.7,28.73,North,0,10.0,11.0,75,0.00,,,0.00,meteohub,2013-01-09 14:00:00,
2013-01-09 08:05:00,42.1,34.7,28.73,North,0,8.0,12.0,75,0.00,,,0.00,meteohub,2013-01-09 14:05:00,
2013-01-09 08:10:00,42.3,34.9,28.73,North,0,8.0,12.0,75,0.00,,,0.00,meteohub,2013-01-09 14:10:00,
2013-01-09 08:15:00,42.4,35.1,28.74,North,0,8.0,12.0,75,0.00,,,0.00,meteohub,2013-01-09 14:15:00,
2013-01-09 08:20:00,42.3,34.9,28.74,NW,315,13.0,13.0,75,0.00,,,0.00,meteohub,2013-01-09 14:20:00,
2013-01-09 08:25:00,42.4,35.1,28.74,NW,315,8.0,13.0,75,0.00,,,0.00,meteohub,2013-01-09 14:25:00,
2013-01-09 08:30:00,42.4,35.1,28.74,North,0,8.0,13.0,75,0.00,,,0.00,meteohub,2013-01-09 14:30:00,
2013-01-09 08:35:00,42.4,35.1,28.74,NE,45,8.0,13.0,75,0.00,,,0.00,meteohub,2013-01-09 14:35:00,
2013-01-09 08:40:00,42.8,35.4,28.75,North,0,13.0,13.0,75,0.00,,,0.00,meteohub,2013-01-09 14:40:00,
2013-01-09 08:45:00,43.0,35.6,28.76,North,0,8.0,13.0,75,0.00,,,0.00,meteohub,2013-01-09 14:45:00,
2013-01-09 08:50:00,42.8,35.1,28.76,WNW,293,8.0,13.0,74,0.00,,,0.00,meteohub,2013-01-09 14:50:00,
2013-01-09 08:55:00,42.8,35.4,28.76,WNW,293,8.0,13.0,75,0.00,,,0.00,meteohub,2013-01-09 14:55:00,
2013-01-09 09:00:00,43.0,35.6,28.76,North,0,9.0,14.0,75,0.00,,,0.00,meteohub,2013-01-09 15:00:00,
2013-01-09 09:05:00,43.0,35.6,28.77,North,0,5.0,14.0,75,0.00,,,0.00,meteohub,2013-01-09 15:05:00,
2013-01-09 09:10:00,43.3,36.0,28.77,North,0,4.0,14.0,75,0.00,,,0.00,meteohub,2013-01-09 15:10:00,
2013-01-09 09:15:00,43.3,36.0,28.77,North,0,8.0,11.0,75,0.00,,,0.00,meteohub,2013-01-09 15:15:00,
2013-01-09 09:20:00,43.5,36.5,28.77,North,0,14.0,14.0,76,0.00,,,0.00,meteohub,2013-01-09 15:20:00,
2013-01-09 09:25:00,44.1,37.4,28.77,NW,315,11.0,14.0,77,0.00,,,0.00,meteohub,2013-01-09 15:25:00,
2013-01-09 09:30:00,44.1,37.6,28.77,NE,45,8.0,14.0,78,0.00,,,0.00,meteohub,2013-01-09 15:30:00,
2013-01-09 09:35:00,44.1,37.6,28.77,NE,45,6.0,14.0,78,0.00,,,0.00,meteohub,2013-01-09 15:35:00,
2013-01-09 09:40:00,44.1,37.4,28.77,North,0,7.0,11.0,77,0.00,,,0.00,meteohub,2013-01-09 15:40:00,
2013-01-09 09:45:00,44.1,37.4,28.77,WNW,293,9.0,11.0,77,0.00,,,0.00,meteohub,2013-01-09 15:45:00,
2013-01-09 09:50:00,43.9,37.8,28.77,North,0,7.0,12.0,79,0.00,,,0.00,meteohub,2013-01-09 15:50:00,
2013-01-09 09:55:00,43.5,37.8,28.78,WNW,293,8.0,12.0,80,0.00,,,0.00,meteohub,2013-01-09 15:55:00,
2013-01-09 10:00:00,43.7,37.6,28.78,North,0,9.0,12.0,79,0.00,,,0.00,meteohub,2013-01-09 16:00:00,
2013-01-09 10:05:00,43.7,37.2,28.78,NW,315,10.0,10.0,78,0.00,,,0.00,meteohub,2013-01-09 16:05:00,
2013-01-09 10:10:00,44.1,37.6,28.78,NW,315,13.0,16.0,78,0.00,,,0.00,meteohub,2013-01-09 16:10:00,
2013-01-09 10:15:00,43.9,38.1,28.77,North,0,14.0,16.0,80,0.00,,,0.00,meteohub,2013-01-09 16:15:00,
2013-01-09 10:20:00,43.9,38.5,28.77,North,0,10.0,16.0,81,0.00,,,0.00,meteohub,2013-01-09 16:20:00,
2013-01-09 10:25:00,43.5,38.1,28.77,North,0,11.0,16.0,81,0.00,,,0.00,meteohub,2013-01-09 16:25:00,
2013-01-09 10:30:00,43.2,38.1,28.77,NW,315,11.0,15.0,82,0.00,,,0.00,meteohub,2013-01-09 16:30:00,
2013-01-09 10:35:00,43.3,38.3,28.77,NW,315,14.0,15.0,82,0.00,,,0.00,meteohub,2013-01-09 16:35:00,
2013-01-09 10:40:00,43.3,38.5,28.76,North,0,11.0,15.0,83,0.00,,,0.00,meteohub,2013-01-09 16:40:00,
2013-01-09 10:45:00,43.3,38.5,28.76,North,0,13.0,15.0,83,0.00,,,0.00,meteohub,2013-01-09 16:45:00,
2013-01-09 10:50:00,43.7,38.8,28.76,NE,45,11.0,17.0,83,0.00,,,0.00,meteohub,2013-01-09 16:50:00,
2013-01-09 10:56:00,43.5,38.5,28.76,NW,315,15.0,17.0,82,0.00,,,0.00,meteohub,2013-01-09 16:56:00,
2013-01-09 11:01:00,43.5,38.5,28.76,North,0,15.0,15.0,82,0.00,,,0.00,meteohub,2013-01-09 17:01:00,
2013-01-09 11:06:00,43.3,37.9,28.76,North,0,9.0,16.0,81,0.00,,,0.00,meteohub,2013-01-09 17:06:00,
2013-01-09 11:11:00,43.7,37.6,28.76,North,0,11.0,16.0,79,0.00,,,0.00,meteohub,2013-01-09 17:11:00,
2013-01-09 11:16:00,44.2,38.1,28.76,WNW,293,12.0,16.0,79,0.00,,,0.00,meteohub,2013-01-09 17:16:00,
2013-01-09 11:21:00,44.6,38.5,28.76,North,0,11.0,15.0,79,0.00,,,0.00,meteohub,2013-01-09 17:21:00,
2013-01-09 11:26:00,45.0,38.5,28.75,North,0,13.0,15.0,78,0.00,,,0.00,meteohub,2013-01-09 17:26:00,
2013-01-09 11:31:00,45.3,38.5,28.75,North,0,8.0,17.0,77,0.00,,,0.00,meteohub,2013-01-09 17:31:00,
2013-01-09 11:36:00,45.5,38.7,28.74,North,0,11.0,17.0,77,0.00,,,0.00,meteohub,2013-01-09 17:36:00,
2013-01-09 11:41:00,45.9,39.0,28.74,North,0,16.0,17.0,77,0.00,,,0.00,meteohub,2013-01-09 17:41:00,
2013-01-09 11:46:00,45.7,38.8,28.74,NNW,338,10.0,16.0,77,0.00,,,0.00,meteohub,2013-01-09 17:46:00,
2013-01-09 11:51:00,46.0,39.2,28.74,North,0,15.0,16.0,77,0.00,,,0.00,meteohub,2013-01-09 17:51:00,
2013-01-09 11:56:00,46.0,40.3,28.74,North,0,11.0,16.0,80,0.00,,,0.00,meteohub,2013-01-09 17:56:00,
2013-01-09 12:01:00,45.9,41.0,28.74,NE,45,8.0,16.0,83,0.00,,,0.00,meteohub,2013-01-09 18:01:00,
2013-01-09 12:06:00,45.7,42.1,28.73,NE,45,11.0,16.0,87,0.00,,,0.00,meteohub,2013-01-09 18:06:00,
2013-01-09 12:11:00,45.1,42.1,28.73,NE,45,10.0,16.0,89,0.00,,,0.00,meteohub,2013-01-09 18:11:00,
2013-01-09 12:16:00,45.0,42.4,28.73,North,0,10.0,19.0,91,0.00,,,0.00,meteohub,2013-01-09 18:16:00,
2013-01-09 12:21:00,44.8,42.8,28.72,North,0,14.0,19.0,93,0.00,,,0.00,meteohub,2013-01-09 18:21:00,
2013-01-09 12:26:00,44.4,42.8,28.72,NE,45,10.0,19.0,94,0.00,,,0.00,meteohub,2013-01-09 18:26:00,
2013-01-09 12:31:00,44.2,43.0,28.72,North,0,13.0,19.0,95,0.00,,,0.00,meteohub,2013-01-09 18:31:00,
2013-01-09 12:36:00,44.2,43.2,28.71,North,0,7.0,14.0,96,0.00,,,0.00,meteohub,2013-01-09 18:36:00,
2013-01-09 12:41:00,44.1,43.3,28.71,North,0,11.0,14.0,97,0.00,,,0.00,meteohub,2013-01-09 18:41:00,
2013-01-09 12:44:00,43.9,43.2,28.70,North,0,17.0,17.0,97,0.00,,,0.00,meteohub,2013-01-09 18:44:00,
2013-01-09 12:45:00,43.9,43.2,28.70,North,0,17.0,17.0,97,0.00,,,0.00,meteohub,2013-01-09 18:45:00,
2013-01-09 12:48:00,43.9,42.8,28.69,WNW,293,8.0,14.0,96,0.01,,,0.01,meteohub,2013-01-09 18:48:00,
2013-01-09 12:49:00,43.9,43.2,28.69,North,0,13.0,14.0,97,0.01,,,0.01,meteohub,2013-01-09 18:49:00,
2013-01-09 12:54:00,43.7,43.0,28.69,North,0,9.0,20.0,97,0.01,,,0.01,meteohub,2013-01-09 18:54:00,
2013-01-09 12:59:00,43.7,43.0,28.68,North,0,20.0,20.0,97,0.01,,,0.01,meteohub,2013-01-09 18:59:00,
2013-01-09 13:04:00,43.9,43.3,28.68,North,0,13.0,18.0,98,0.01,,,0.01,meteohub,2013-01-09 19:04:00,
2013-01-09 13:09:00,43.7,43.2,28.67,NE,45,11.0,21.0,98,0.01,,,0.01,meteohub,2013-01-09 19:09:00,
2013-01-09 13:14:00,43.7,43.2,28.67,North,0,16.0,21.0,98,0.01,,,0.01,meteohub,2013-01-09 19:14:00,
2013-01-09 13:19:00,43.7,43.2,28.66,North,0,16.0,21.0,98,0.02,,,0.02,meteohub,2013-01-09 19:19:00,
2013-01-09 13:24:00,43.7,43.2,28.66,WNW,293,14.0,19.0,98,0.02,,,0.02,meteohub,2013-01-09 19:24:00,
2013-01-09 13:29:00,43.7,43.2,28.66,North,0,17.0,19.0,98,0.02,,,0.02,meteohub,2013-01-09 19:29:00,
2013-01-09 13:34:00,43.9,43.7,28.67,North,0,22.0,22.0,99,0.02,,,0.02,meteohub,2013-01-09 19:34:00,
2013-01-09 13:39:00,44.1,43.9,28.67,North,0,11.0,17.0,99,0.02,,,0.02,meteohub,2013-01-09 19:39:00,
2013-01-09 13:44:00,44.1,43.9,28.67,NE,45,6.0,22.0,99,0.02,,,0.02,meteohub,2013-01-09 19:44:00,
2013-01-09 13:49:00,44.1,43.5,28.66,North,0,14.0,22.0,98,0.01,,,0.02,meteohub,2013-01-09 19:49:00,
2013-01-09 13:54:00,44.1,43.5,28.66,NW,315,14.0,22.0,98,0.01,,,0.02,meteohub,2013-01-09 19:54:00,
2013-01-09 13:59:00,44.2,43.7,28.66,North,0,14.0,18.0,98,0.01,,,0.02,meteohub,2013-01-09 19:59:00,
2013-01-09 14:04:00,44.2,43.7,28.66,North,0,13.0,23.0,98,0.01,,,0.02,meteohub,2013-01-09 20:04:00,
2013-01-09 14:09:00,44.4,43.9,28.66,NE,45,16.0,23.0,98,0.01,,,0.02,meteohub,2013-01-09 20:09:00,
2013-01-09 14:14:00,44.4,43.9,28.65,North,0,11.0,23.0,98,0.02,,,0.04,meteohub,2013-01-09 20:14:00,
2013-01-09 14:19:00,44.4,44.2,28.65,NE,45,9.0,24.0,99,0.01,,,0.04,meteohub,2013-01-09 20:19:00,
2013-01-09 14:25:00,44.6,44.1,28.65,North,0,17.0,24.0,98,0.01,,,0.04,meteohub,2013-01-09 20:25:00,
2013-01-09 14:30:00,44.6,44.1,28.65,North,0,17.0,24.0,98,0.01,,,0.04,meteohub,2013-01-09 20:30:00,
2013-01-09 14:35:00,44.6,44.1,28.65,North,0,21.0,21.0,98,0.01,,,0.04,meteohub,2013-01-09 20:35:00,
2013-01-09 14:40:00,45.0,44.4,28.64,NE,45,15.0,17.0,98,0.01,,,0.04,meteohub,2013-01-09 20:40:00,
2013-01-09 14:45:00,45.0,44.8,28.64,NE,45,19.0,21.0,99,0.01,,,0.04,meteohub,2013-01-09 20:45:00,
2013-01-09 14:50:00,45.0,44.8,28.64,North,0,15.0,21.0,99,0.01,,,0.04,meteohub,2013-01-09 20:50:00,
2013-01-09 14:55:00,45.0,44.4,28.65,NW,315,12.0,19.0,98,0.02,,,0.05,meteohub,2013-01-09 20:55:00,
2013-01-09 15:00:00,45.0,44.4,28.65,North,0,18.0,24.0,98,0.02,,,0.05,meteohub,2013-01-09 21:00:00,
2013-01-09 15:05:00,44.8,44.2,28.66,North,0,11.0,24.0,98,0.02,,,0.05,meteohub,2013-01-09 21:05:00,
2013-01-09 15:10:00,44.8,44.6,28.65,North,0,14.0,24.0,99,0.01,,,0.05,meteohub,2013-01-09 21:10:00,
2013-01-09 15:15:00,44.8,44.6,28.65,North,0,11.0,20.0,99,0.01,,,0.05,meteohub,2013-01-09 21:15:00,
2013-01-09 15:20:00,44.8,44.6,28.65,North,0,11.0,19.0,99,0.01,,,0.05,meteohub,2013-01-09 21:20:00,
2013-01-09 15:25:00,44.8,44.6,28.64,NE,45,14.0,20.0,99,0.01,,,0.05,meteohub,2013-01-09 21:25:00,
2013-01-09 15:30:00,44.8,44.6,28.63,NE,45,11.0,21.0,99,0.02,,,0.06,meteohub,2013-01-09 21:30:00,
2013-01-09 15:35:00,44.6,44.4,28.63,NE,45,11.0,21.0,99,0.02,,,0.06,meteohub,2013-01-09 21:35:00,
2013-01-09 15:40:00,44.6,44.4,28.62,North,0,22.0,22.0,99,0.02,,,0.06,meteohub,2013-01-09 21:40:00,
2013-01-09 15:45:00,44.6,44.4,28.62,NW,315,15.0,24.0,99,0.02,,,0.06,meteohub,2013-01-09 21:45:00,
2013-01-09 15:50:00,44.6,44.4,28.63,North,0,14.0,24.0,99,0.01,,,0.06,meteohub,2013-01-09 21:50:00,
2013-01-09 15:55:00,44.8,44.6,28.63,NW,315,19.0,24.0,99,0.01,,,0.06,meteohub,2013-01-09 21:55:00,
2013-01-09 16:00:00,44.8,44.6,28.64,North,0,14.0,21.0,99,0.01,,,0.06,meteohub,2013-01-09 22:00:00,
2013-01-09 16:05:00,45.0,44.8,28.64,North,0,12.0,25.0,99,0.01,,,0.06,meteohub,2013-01-09 22:05:00,
2013-01-09 16:10:00,45.0,44.8,28.64,NNW,338,15.0,25.0,99,0.01,,,0.06,meteohub,2013-01-09 22:10:00,
2013-01-09 16:15:00,44.8,44.6,28.64,NE,45,15.0,22.0,99,0.01,,,0.06,meteohub,2013-01-09 22:15:00,
2013-01-09 16:20:00,45.1,45.0,28.64,NE,45,30.0,30.0,99,0.01,,,0.06,meteohub,2013-01-09 22:20:00,
2013-01-09 16:25:00,45.0,44.8,28.64,NE,45,19.0,30.0,99,0.01,,,0.06,meteohub,2013-01-09 22:25:00,
2013-01-09 16:30:00,44.8,44.6,28.64,North,0,20.0,30.0,99,0.01,,,0.07,meteohub,2013-01-09 22:30:00,
2013-01-09 16:35:00,44.8,44.6,28.64,NW,315,16.0,30.0,99,0.01,,,0.07,meteohub,2013-01-09 22:35:00,
2013-01-09 16:40:00,44.8,44.6,28.64,North,0,16.0,21.0,99,0.02,,,0.08,meteohub,2013-01-09 22:40:00,
2013-01-09 16:45:00,45.0,44.8,28.64,North,0,15.0,24.0,99,0.02,,,0.08,meteohub,2013-01-09 22:45:00,
2013-01-09 16:50:00,44.6,44.4,28.64,East,90,19.0,24.0,99,0.02,,,0.08,meteohub,2013-01-09 22:50:00,
2013-01-09 16:55:00,44.8,44.6,28.63,NE,45,27.0,27.0,99,0.02,,,0.08,meteohub,2013-01-09 22:55:00,
2013-01-09 17:01:00,44.8,44.6,28.63,North,0,13.0,27.0,99,0.02,,,0.08,meteohub,2013-01-09 23:01:00,
2013-01-09 17:06:00,44.6,44.4,28.63,NE,45,20.0,27.0,99,0.02,,,0.08,meteohub,2013-01-09 23:06:00,
2013-01-09 17:11:00,44.6,44.4,28.63,NE,45,17.0,27.0,99,0.02,,,0.08,meteohub,2013-01-09 23:11:00,
2013-01-09 17:16:00,44.4,44.2,28.62,NE,45,18.0,26.0,99,0.04,,,0.09,meteohub,2013-01-09 23:16:00,
2013-01-09 17:21:00,44.2,44.1,28.62,NE,45,15.0,26.0,99,0.04,,,0.09,meteohub,2013-01-09 23:21:00,
2013-01-09 17:26:00,44.2,44.1,28.61,North,0,17.0,26.0,99,0.04,,,0.09,meteohub,2013-01-09 23:26:00,
2013-01-09 17:31:00,44.2,44.1,28.61,North,0,21.0,26.0,99,0.02,,,0.09,meteohub,2013-01-09 23:31:00,
2013-01-09 17:36:00,44.1,43.9,28.61,NE,45,25.0,26.0,99,0.02,,,0.09,meteohub,2013-01-09 23:36:00,
2013-01-09 17:41:00,44.1,43.9,28.61,North,0,20.0,26.0,99,0.02,,,0.11,meteohub,2013-01-09 23:41:00,
2013-01-09 17:46:00,43.7,43.5,28.61,North,0,17.0,25.0,99,0.02,,,0.11,meteohub,2013-01-09 23:46:00,
2013-01-09 17:51:00,43.7,43.5,28.61,NE,45,21.0,25.0,99,0.02,,,0.11,meteohub,2013-01-09 23:51:00,
2013-01-09 17:56:00,43.5,43.3,28.60,East,90,18.0,23.0,99,0.02,,,0.11,meteohub,2013-01-09 23:56:00,
2013-01-09 18:01:00,43.7,43.5,28.61,North,0,23.0,23.0,99,0.02,,,0.11,meteohub,2013-01-10 00:01:00,
2013-01-09 18:06:00,43.5,43.3,28.61,North,0,15.0,24.0,99,0.02,,,0.00,meteohub,2013-01-10 00:06:00,
2013-01-09 18:11:00,43.7,43.5,28.61,NE,45,18.0,27.0,99,0.04,,,0.01,meteohub,2013-01-10 00:11:00,
2013-01-09 18:16:00,43.5,43.3,28.60,North,0,18.0,27.0,99,0.02,,,0.01,meteohub,2013-01-10 00:16:00,
2013-01-09 18:21:00,43.5,43.3,28.61,NNW,338,18.0,27.0,99,0.02,,,0.01,meteohub,2013-01-10 00:21:00,
2013-01-09 18:26:00,43.5,43.3,28.60,North,0,10.0,24.0,99,0.02,,,0.01,meteohub,2013-01-10 00:26:00,
2013-01-09 18:31:00,43.5,43.0,28.59,WNW,293,21.0,24.0,98,0.02,,,0.01,meteohub,2013-01-10 00:31:00,
2013-01-09 18:36:00,43.5,42.8,28.60,East,90,21.0,30.0,97,0.02,,,0.02,meteohub,2013-01-10 00:36:00,
2013-01-09 18:41:00,43.5,43.0,28.59,NNW,338,30.0,30.0,98,0.02,,,0.02,meteohub,2013-01-10 00:41:00,
2013-01-09 18:46:00,43.9,43.2,28.58,North,0,23.0,30.0,97,0.02,,,0.02,meteohub,2013-01-10 00:46:00,
2013-01-09 18:51:00,43.7,43.2,28.58,NE,45,19.0,30.0,98,0.04,,,0.04,meteohub,2013-01-10 00:51:00,
2013-01-09 18:56:00,43.9,43.3,28.58,NE,45,20.0,30.0,98,0.04,,,0.04,meteohub,2013-01-10 00:56:00,
2013-01-09 19:01:00,43.7,43.5,28.58,NE,45,21.0,28.0,99,0.04,,,0.04,meteohub,2013-01-10 01:01:00,
2013-01-09 19:06:00,43.7,43.5,28.59,NE,45,27.0,27.0,99,0.02,,,0.04,meteohub,2013-01-10 01:06:00,
2013-01-09 19:11:00,43.5,43.3,28.58,NE,45,22.0,27.0,99,0.02,,,0.04,meteohub,2013-01-10 01:11:00,
2013-01-09 19:16:00,43.5,43.3,28.58,North,0,17.0,27.0,99,0.04,,,0.05,meteohub,2013-01-10 01:16:00,
2013-01-09 19:21:00,43.5,43.3,28.58,NE,45,23.0,33.0,99,0.04,,,0.05,meteohub,2013-01-10 01:21:00,
2013-01-09 19:26:00,43.5,43.3,28.58,NE,45,26.0,33.0,99,0.04,,,0.05,meteohub,2013-01-10 01:26:00,
2013-01-09 19:31:00,43.3,43.2,28.57,NE,45,22.0,33.0,99,0.04,,,0.05,meteohub,2013-01-10 01:31:00,
2013-01-09 19:36:00,43.5,43.3,28.58,NE,45,18.0,30.0,99,0.02,,,0.05,meteohub,2013-01-10 01:36:00,
2013-01-09 19:41:00,43.5,43.3,28.57,NE,45,27.0,30.0,99,0.02,,,0.05,meteohub,2013-01-10 01:41:00,
2013-01-09 19:46:00,43.5,43.3,28.57,NE,45,24.0,30.0,99,0.04,,,0.06,meteohub,2013-01-10 01:46:00,
2013-01-09 19:51:00,43.5,43.3,28.57,North,0,20.0,27.0,99,0.02,,,0.06,meteohub,2013-01-10 01:51:00,
2013-01-09 19:56:00,43.5,43.3,28.56,NE,45,27.0,27.0,99,0.02,,,0.06,meteohub,2013-01-10 01:56:00,
2013-01-09 20:01:00,43.7,43.5,28.57,NE,45,22.0,27.0,99,0.04,,,0.07,meteohub,2013-01-10 02:01:00,
2013-01-09 20:07:00,43.7,43.5,28.56,North,0,20.0,30.0,99,0.04,,,0.07,meteohub,2013-01-10 02:07:00,
2013-01-09 20:12:00,43.9,43.7,28.57,North,0,15.0,30.0,99,0.05,,,0.08,meteohub,2013-01-10 02:12:00,
2013-01-09 20:17:00,43.9,43.7,28.57,NE,45,21.0,30.0,99,0.04,,,0.08,meteohub,2013-01-10 02:17:00,
2013-01-09 20:22:00,43.9,43.7,28.57,North,0,21.0,30.0,99,0.04,,,0.08,meteohub,2013-01-10 02:22:00,
2013-01-09 20:27:00,44.1,43.9,28.57,NE,45,20.0,30.0,99,0.05,,,0.09,meteohub,2013-01-10 02:27:00,
2013-01-09 20:32:00,44.1,43.9,28.57,NE,45,17.0,29.0,99,0.05,,,0.09,meteohub,2013-01-10 02:32:00,
2013-01-09 20:37:00,44.1,43.9,28.57,North,0,21.0,27.0,99,0.05,,,0.09,meteohub,2013-01-10 02:37:00,
2013-01-09 20:42:00,44.2,44.1,28.56,NE,45,17.0,27.0,99,0.04,,,0.09,meteohub,2013-01-10 02:42:00,
2013-01-09 20:47:00,44.2,44.1,28.56,NE,45,15.0,27.0,99,0.04,,,0.09,meteohub,2013-01-10 02:47:00,
2013-01-09 20:52:00,44.1,43.9,28.56,WSW,248,23.0,27.0,99,0.04,,,0.09,meteohub,2013-01-10 02:52:00,
2013-01-09 20:57:00,44.2,44.1,28.56,NE,45,16.0,27.0,99,0.05,,,0.11,meteohub,2013-01-10 02:57:00,
2013-01-09 21:02:00,44.2,44.1,28.55,NE,45,18.0,27.0,99,0.04,,,0.11,meteohub,2013-01-10 03:02:00,
2013-01-09 21:07:00,44.2,44.1,28.56,North,0,19.0,27.0,99,0.04,,,0.11,meteohub,2013-01-10 03:07:00,
2013-01-09 21:12:00,44.2,44.1,28.56,NE,45,21.0,27.0,99,0.02,,,0.11,meteohub,2013-01-10 03:12:00,
2013-01-09 21:17:00,44.2,44.1,28.56,NE,45,23.0,27.0,99,0.02,,,0.11,meteohub,2013-01-10 03:17:00,
2013-01-09 21:22:00,44.4,44.2,28.56,NE,45,16.0,26.0,99,0.01,,,0.11,meteohub,2013-01-10 03:22:00,
2013-01-09 21:27:00,44.4,44.2,28.56,NE,45,16.0,27.0,99,0.01,,,0.11,meteohub,2013-01-10 03:27:00,
2013-01-09 21:32:00,44.4,44.2,28.55,North,0,19.0,27.0,99,0.01,,,0.11,meteohub,2013-01-10 03:32:00,
2013-01-09 21:37:00,44.4,44.2,28.55,NE,45,22.0,24.0,99,0.01,,,0.11,meteohub,2013-01-10 03:37:00,
2013-01-09 21:42:00,44.6,44.4,28.56,NE,45,21.0,22.0,99,0.02,,,0.12,meteohub,2013-01-10 03:42:00,
2013-01-09 21:47:00,44.6,44.4,28.55,NE,45,15.0,22.0,99,0.02,,,0.12,meteohub,2013-01-10 03:47:00,
2013-01-09 21:52:00,44.6,44.4,28.55,NE,45,15.0,22.0,99,0.02,,,0.12,meteohub,2013-01-10 03:52:00,
2013-01-09 21:57:00,44.8,44.6,28.55,NE,45,22.0,22.0,99,0.02,,,0.13,meteohub,2013-01-10 03:57:00,
2013-01-09 22:02:00,45.0,44.8,28.55,NE,45,20.0,22.0,99,0.02,,,0.13,meteohub,2013-01-10 04:02:00,
2013-01-09 22:07:00,45.0,44.8,28.56,NE,45,19.0,24.0,99,0.02,,,0.13,meteohub,2013-01-10 04:07:00,
2013-01-09 22:12:00,45.1,45.0,28.56,NE,45,15.0,24.0,99,0.02,,,0.13,meteohub,2013-01-10 04:12:00,
2013-01-09 22:17:00,45.3,45.1,28.56,East,90,20.0,24.0,99,0.02,,,0.13,meteohub,2013-01-10 04:17:00,
2013-01-09 22:22:00,45.3,45.1,28.56,North,0,17.0,21.0,99,0.04,,,0.14,meteohub,2013-01-10 04:22:00,
2013-01-09 22:27:00,45.5,45.3,28.56,NE,45,17.0,21.0,99,0.04,,,0.14,meteohub,2013-01-10 04:27:00,
2013-01-09 22:32:00,45.7,45.5,28.55,NE,45,13.0,21.0,99,0.04,,,0.14,meteohub,2013-01-10 04:32:00,
2013-01-09 22:37:00,45.7,45.5,28.56,NE,45,17.0,21.0,99,0.04,,,0.14,meteohub,2013-01-10 04:37:00,
2013-01-09 22:42:00,45.7,45.5,28.54,NE,45,21.0,21.0,99,0.02,,,0.14,meteohub,2013-01-10 04:42:00,
2013-01-09 22:47:00,45.9,45.7,28.54,NE,45,8.0,21.0,99,0.04,,,0.15,meteohub,2013-01-10 04:47:00,
2013-01-09 22:52:00,45.9,45.7,28.55,NE,45,15.0,21.0,99,0.04,,,0.15,meteohub,2013-01-10 04:52:00,
2013-01-09 22:57:00,45.9,45.7,28.55,NE,45,17.0,21.0,99,0.04,,,0.17,meteohub,2013-01-10 04:57:00,
2013-01-09 23:00:00,46.0,45.9,28.55,North,0,14.0,21.0,99,0.07,,,0.20,meteohub,2013-01-10 05:00:00,
2013-01-09 23:02:00,45.9,45.7,28.55,NE,45,14.0,20.0,99,0.07,,,0.20,meteohub,2013-01-10 05:02:00,
2013-01-09 23:07:00,46.0,45.9,28.55,NE,45,17.0,20.0,99,0.08,,,0.21,meteohub,2013-01-10 05:07:00,
2013-01-09 23:12:00,46.0,45.9,28.54,NE,45,17.0,19.0,99,0.08,,,0.21,meteohub,2013-01-10 05:12:00,
2013-01-09 23:17:00,46.2,46.0,28.54,NE,45,18.0,19.0,99,0.09,,,0.22,meteohub,2013-01-10 05:17:00,
2013-01-09 23:22:00,46.2,46.0,28.54,NE,45,14.0,19.0,99,0.08,,,0.22,meteohub,2013-01-10 05:22:00,
2013-01-09 23:27:00,46.0,45.9,28.54,North,0,15.0,21.0,99,0.08,,,0.22,meteohub,2013-01-10 05:27:00,
2013-01-09 23:32:00,46.0,45.9,28.54,North,0,16.0,21.0,99,0.08,,,0.22,meteohub,2013-01-10 05:32:00,
2013-01-09 23:37:00,46.2,46.0,28.54,NE,45,13.0,17.0,99,0.08,,,0.22,meteohub,2013-01-10 05:37:00,
2013-01-09 23:42:00,46.2,46.0,28.54,NE,45,15.0,17.0,99,0.07,,,0.22,meteohub,2013-01-10 05:42:00,
2013-01-09 23:47:00,46.2,46.0,28.53,North,0,18.0,18.0,99,0.07,,,0.22,meteohub,2013-01-10 05:47:00,
2013-01-09 23:52:00,46.2,46.0,28.53,East,90,13.0,18.0,99,0.07,,,0.22,meteohub,2013-01-10 05:52:00,
2013-01-09 23:57:00,46.2,46.0,28.53,NE,45,15.0,19.0,99,0.05,,,0.22,meteohub,2013-01-10 05:57:00,